User: anonymous   Login
Location: Peebles
(55.6412°N, 3.1714°W)
Time: 00:25:34
(UTC+00:00)
Language:

USA 245 - Orbit

View from above orbital plane
View from above orbital plane
View from above satellite
View from above satellite

Ground track
Ground track

The orbit data is extracted from the following two-line orbital elements,

1 39232U 13043A   21305.87048242 0.00017000  00000-0  17847-3 0    07
2 39232  97.8720   6.5645 0529858 201.2046 158.7952 14.76958932    03
Epoch (UTC): 01 November 2021 20:53:29
Eccentricity: 0.0529858
inclination: 97.8720°
perigee height: 267 km
apogee height: 1011 km
right ascension of ascending node: 6.5645°
argument of perigee: 201.2046°
revolutions per day: 14.76958932
mean anomaly at epoch: 158.7952°
orbit number at epoch: 0

The dashed part of the orbit path shows where the satellite is in the earth's shadow,  

DLR